DELTA 1 DEB, 42645

Orbit data source: Space-Track

DELTA 1 DEB, 42645 is space debris in SSO originally from a launch on Thu, 12 Jun 1975 UTC launched from the Air Force Western Test Range (AFWTR). Debris objects in space refer to the collection of defunct objects orbiting the Earth. Examples of debris include non-operational satellites, rocket bodies, and fragments generated from explosions, collisions, or faulty payload assembly.

Loading next visibility...
Identifier
42645, 1975-052ME
Orbit
SSO
Country
Flag of USUS
Related business
Manufacturer
Unknown
Mission
Spacecraft
Bus & Motor
Unknown
Mass
Unknown
Launch date (UTC)
1975-06-12 (51 years ago)
Launch vehicle
Unknown
Launch site
Air Force Western Test Range (AFWTR)
Object type
Payload
Rocket body
Debris
Shape & HBR
Unknown shape, 0.1 m
Radar Cross Section
Small (<0.1 m²)

Expand to show TLE details & history
Last TLE update: 3 weeks ago

TLE from 3 weeks ago
0 DELTA 1 DEB
1 42645U 75052ME  26106.99498737 -.00000097  00000-0 -19051-3 0  9998
2 42645  99.7360  11.2198 0269504 339.2948  31.4859 12.90063387455017
Epoch: 2026-04-16T23:52Z
TLE epoch observation values (Epoch: 2026-04-16T23:52:46.908Z)
Latitude
12.22102°
Longitude
165.77098°
Altitude
1,128.28 km
Speed
7.372 km/s
True Right ascension
00h 36m 24s
True Declination
12° 09' 13"
Sunlit
Object was in daylight at epoch
Visualization orbit readout
Latitude
Unknown
Longitude
Unknown
Altitude
Unknown
Speed
Unknown
Apparent Right ascension
Unknown
Apparent Declination
Unknown
Sunlit
N/A
Visualization observer readout
Local Sidereal Time
17:21:23
Azimuth
Unknown
Elevation
Unknown
Doppler factor
Unknown
Orbital elements
Apogee altitude
1,505.546 km
Perigee altitude
1,091.761 km
Semi-major axis
7,676.79 km
Eccentricity
0.02695
Inclination
99.736°
RAAN
11.2198°
Arg. of periapsis
339.2948°
True anomaly
33.14629°
Mean anomaly
31.4859°
Eccentric anomaly
32.31127°
Mean motion
3.22681 °/min
Orbital period
111.57 mins
BSTAR
-0.00019051
Loading maneuver chart data...
Computing Atmospheric mass density...
Loading historical data...
Loading historical data...
Loading historical data...
Loading historical data...
Loading historical data...
Loading historical data...
Loading historical data...

Documentation

Showing up to 5 results
|